Back to catalog

ONEWEB-0418

AliveCommunicationsPO
NORAD 50493·PAYLOAD·🇬🇧 United Kingdom

Launched Dec 27, 2021 from Baikonur Cosmodrome

Loading…

Next Passes (next 24 hours)

TLE

FreshSource: CelesTrak SupGP

Epoch: Sep 14, 2026, 21:10 UTC

1 50493C 21132AA  26257.88243056 -.00000896  00000+0 -22751-2 0  2578
2 50493  87.9160 317.6369 0001943 111.6910 283.4103 13.18685012    12

Track ONEWEB-0418 in real time with AllMySat

Download on the App Store